Piedmont Triad International Airport
KGSO : now visible

Airfield :











YOU CAN JOIN US ON...

 
LOGIN :

Register | Disclaimer

   EN    FR    IT 

 









Legend :    VFR   Marginal VFR   IFR   Intensive IFR   Very Intensive IFR
Visi :
Ceiling :
>= 8 km
>= 3000ft
5 to 8 km
1000 to 3000 ft
1500m to 5 km
500 to 1000 ft
800 to 1500m
200 to 500 ft
< 800m
< 200 ft
Symbols :   Thunderstorms  Fog  Heavy snow  Heavy precipitations  Wind > 20 kt






- Airport Elevation : 925 ft
- IATA code : GSO


KGSO - Piedmont Triad International

CURRENT METAR :
  • 181954Z VRB03KT 10SM BKN070 21/03 A2984 RMK AO2 SLP098 T02060033

EXPIRED METARs :
  • 181854Z 26005KT 10SM BKN060 BKN170 BKN250 19/04 A2986 RMK AO2 SLP107 T01890039
  • 181754Z 32009KT 10SM FEW060 FEW080 BKN170 OVC250 18/03 A2987 RMK AO2 SLP111 T01830028 10189 20106 58015

TAF KGSO
Valid from the 18 at 18:00 until the 19 at 18:00 UTC


181720Z 1818/1918 VRB05KT P6SM BKN070 BKN180
FM190200 VRB04KT P6SM VCSH BKN050
FM191400 03005KT P6SM BKN035
KZTL FIR / North America



MET'MAP, your aeronautical weather chart ! - Copyright ORBIFLY December 2007 - Disclaimer

ORBIFLY MET'MAP TEAM :

Programming & Development : Alexandra Zaïnal
Concept & original design : Baudouin d'Aumeries
Assistance for programming : Marc-Olivier Méhu
Technical & hardware support : Manuel Goepfert

Contact : metmap@orbifly.com




SOURCES & CREDITS :

   NOAA       Earth
Advisory